Year,Month,Day,Hour,Minute,Value (Times are PST for temperature in C)
2018,05,29,00,00,14.30
2018,05,29,00,01,14.30
2018,05,29,00,02,14.30
2018,05,29,00,03,14.30
2018,05,29,00,04,14.30
2018,05,29,00,05,14.20
2018,05,29,00,06,14.20
2018,05,29,00,07,14.20
2018,05,29,00,08,14.20
2018,05,29,00,09,14.10
2018,05,29,00,10,14.10
2018,05,29,00,11,14.10
2018,05,29,00,12,14.10
2018,05,29,00,13,14.10
2018,05,29,00,14,14.10
2018,05,29,00,15,14.00
2018,05,29,00,16,14.00
2018,05,29,00,17,14.00
2018,05,29,00,18,14.00
2018,05,29,00,19,14.00
2018,05,29,00,20,13.90
2018,05,29,00,21,13.90
2018,05,29,00,22,13.90
2018,05,29,00,23,13.90
2018,05,29,00,24,13.90
2018,05,29,00,25,13.90
2018,05,29,00,26,13.80
2018,05,29,00,27,13.80
2018,05,29,00,28,13.80
2018,05,29,00,29,13.80
2018,05,29,00,30,13.90
2018,05,29,00,31,13.90
2018,05,29,00,32,13.80
2018,05,29,00,33,13.80
2018,05,29,00,34,13.80
2018,05,29,00,35,13.80
2018,05,29,00,36,13.80
2018,05,29,00,37,13.80
2018,05,29,00,38,13.80
2018,05,29,00,39,13.80
2018,05,29,00,40,13.80
2018,05,29,00,41,13.80
2018,05,29,00,42,13.80
2018,05,29,00,43,13.80
2018,05,29,00,44,13.80
2018,05,29,00,45,13.80
2018,05,29,00,46,13.70
2018,05,29,00,47,13.70
2018,05,29,00,48,13.70
2018,05,29,00,49,13.70
2018,05,29,00,50,13.70
2018,05,29,00,51,13.70
2018,05,29,00,52,13.70
2018,05,29,00,53,13.70
2018,05,29,00,54,13.70
2018,05,29,00,55,13.70
2018,05,29,00,56,13.70
2018,05,29,00,57,13.70
2018,05,29,00,58,13.70
2018,05,29,00,59,13.60
2018,05,29,01,00,13.60
2018,05,29,01,01,13.60
2018,05,29,01,02,13.60
2018,05,29,01,03,13.60
2018,05,29,01,04,13.50
2018,05,29,01,05,13.50
2018,05,29,01,06,13.50
2018,05,29,01,07,13.40
2018,05,29,01,08,13.40
2018,05,29,01,09,13.40
2018,05,29,01,10,13.40
2018,05,29,01,11,13.40
2018,05,29,01,12,13.40
2018,05,29,01,13,13.30
2018,05,29,01,14,13.30
2018,05,29,01,15,13.30
2018,05,29,01,16,13.30
2018,05,29,01,17,13.20
2018,05,29,01,18,13.20
2018,05,29,01,19,13.20
2018,05,29,01,20,13.20
2018,05,29,01,21,13.20
2018,05,29,01,22,13.20
2018,05,29,01,23,13.20
2018,05,29,01,24,13.20
2018,05,29,01,25,13.10
2018,05,29,01,26,13.10
2018,05,29,01,27,13.10
2018,05,29,01,28,13.10
2018,05,29,01,29,13.10
2018,05,29,01,30,13.10
2018,05,29,01,31,13.10
2018,05,29,01,32,13.00
2018,05,29,01,33,13.00
2018,05,29,01,34,13.00
2018,05,29,01,35,13.00
2018,05,29,01,36,13.00
2018,05,29,01,37,12.90
2018,05,29,01,38,12.90
2018,05,29,01,39,12.90
2018,05,29,01,40,12.90
2018,05,29,01,41,12.90
2018,05,29,01,42,12.80
2018,05,29,01,43,12.80
2018,05,29,01,44,12.80
2018,05,29,01,45,12.80
2018,05,29,01,46,12.80
2018,05,29,01,47,12.80
2018,05,29,01,48,12.70
2018,05,29,01,49,12.70
2018,05,29,01,50,12.70
2018,05,29,01,51,12.70
2018,05,29,01,52,12.70
2018,05,29,01,53,12.70
2018,05,29,01,54,12.70
2018,05,29,01,55,12.70
2018,05,29,01,56,12.70
2018,05,29,01,57,12.70
2018,05,29,01,58,12.70
2018,05,29,01,59,12.70
2018,05,29,02,00,12.70
2018,05,29,02,01,12.70
2018,05,29,02,02,12.70
2018,05,29,02,03,12.70
2018,05,29,02,04,12.70
2018,05,29,02,05,12.70
2018,05,29,02,06,12.60
2018,05,29,02,07,12.60
2018,05,29,02,08,12.60
2018,05,29,02,09,12.60
2018,05,29,02,10,12.70
2018,05,29,02,11,12.70
2018,05,29,02,12,12.70
2018,05,29,02,13,12.60
2018,05,29,02,14,12.60
2018,05,29,02,15,12.60
2018,05,29,02,16,12.60
2018,05,29,02,17,12.60
2018,05,29,02,18,12.50
2018,05,29,02,19,12.50
2018,05,29,02,20,12.50
2018,05,29,02,21,12.50
2018,05,29,02,22,12.50
2018,05,29,02,23,12.50
2018,05,29,02,24,12.50
2018,05,29,02,25,12.50
2018,05,29,02,26,12.50
2018,05,29,02,27,12.60
2018,05,29,02,28,12.60
2018,05,29,02,29,12.60
2018,05,29,02,30,12.60
2018,05,29,02,31,12.60
2018,05,29,02,32,12.60
2018,05,29,02,33,12.60
2018,05,29,02,34,12.50
2018,05,29,02,35,12.50
2018,05,29,02,36,12.50
2018,05,29,02,37,12.50
2018,05,29,02,38,12.50
2018,05,29,02,39,12.50
2018,05,29,02,40,12.50
2018,05,29,02,41,12.50
2018,05,29,02,42,12.50
2018,05,29,02,43,12.50
2018,05,29,02,44,12.40
2018,05,29,02,45,12.40
2018,05,29,02,46,12.40
2018,05,29,02,47,12.40
2018,05,29,02,48,12.40
2018,05,29,02,49,12.40
2018,05,29,02,50,12.40
2018,05,29,02,51,12.40
2018,05,29,02,52,12.30
2018,05,29,02,53,12.30
2018,05,29,02,54,12.30
2018,05,29,02,55,12.30
2018,05,29,02,56,12.30
2018,05,29,02,57,12.30
2018,05,29,02,58,12.20
2018,05,29,02,59,12.20
2018,05,29,03,00,12.20
2018,05,29,03,01,12.20
2018,05,29,03,02,12.10
2018,05,29,03,03,12.10
2018,05,29,03,04,12.10
2018,05,29,03,05,12.10
2018,05,29,03,06,12.00
2018,05,29,03,07,12.00
2018,05,29,03,08,12.00
2018,05,29,03,09,12.00
2018,05,29,03,10,12.00
2018,05,29,03,11,12.00
2018,05,29,03,12,12.00
2018,05,29,03,13,11.90
2018,05,29,03,14,11.90
2018,05,29,03,15,11.90
2018,05,29,03,16,11.90
2018,05,29,03,17,11.90
2018,05,29,03,18,11.90
2018,05,29,03,19,11.90
2018,05,29,03,20,11.80
2018,05,29,03,21,11.80
2018,05,29,03,22,11.80
2018,05,29,03,23,11.80
2018,05,29,03,24,11.70
2018,05,29,03,25,11.70
2018,05,29,03,26,11.70
2018,05,29,03,27,11.70
2018,05,29,03,28,11.70
2018,05,29,03,29,11.70
2018,05,29,03,30,11.70
2018,05,29,03,31,11.70
2018,05,29,03,32,11.60
2018,05,29,03,33,11.50
2018,05,29,03,34,11.50
2018,05,29,03,35,11.50
2018,05,29,03,36,11.40
2018,05,29,03,37,11.40
2018,05,29,03,38,11.40
2018,05,29,03,39,11.30
2018,05,29,03,40,11.30
2018,05,29,03,41,11.30
2018,05,29,03,42,11.30
2018,05,29,03,43,11.30
2018,05,29,03,44,11.20
2018,05,29,03,45,11.20
2018,05,29,03,46,11.20
2018,05,29,03,47,11.20
2018,05,29,03,48,11.20
2018,05,29,03,49,11.20
2018,05,29,03,50,11.20
2018,05,29,03,51,11.20
2018,05,29,03,52,11.20
2018,05,29,03,53,11.20
2018,05,29,03,54,11.10
2018,05,29,03,55,11.10
2018,05,29,03,56,11.10
2018,05,29,03,57,11.10
2018,05,29,03,58,11.10
2018,05,29,03,59,11.10
2018,05,29,04,00,11.00
2018,05,29,04,01,11.00
2018,05,29,04,02,11.00
2018,05,29,04,03,10.90
2018,05,29,04,04,10.90
2018,05,29,04,05,10.80
2018,05,29,04,06,10.80
2018,05,29,04,07,10.80
2018,05,29,04,08,10.80
2018,05,29,04,09,10.80
2018,05,29,04,10,10.70
2018,05,29,04,11,10.70
2018,05,29,04,12,10.70
2018,05,29,04,13,10.70
2018,05,29,04,14,10.60
2018,05,29,04,15,10.60
2018,05,29,04,16,10.50
2018,05,29,04,17,10.50
2018,05,29,04,18,10.50
2018,05,29,04,19,10.50
2018,05,29,04,20,10.40
2018,05,29,04,21,10.40
2018,05,29,04,22,10.40
2018,05,29,04,23,10.40
2018,05,29,04,24,10.40
2018,05,29,04,25,10.40
2018,05,29,04,26,10.40
2018,05,29,04,27,10.30
2018,05,29,04,28,10.30
2018,05,29,04,29,10.30
2018,05,29,04,30,10.20
2018,05,29,04,31,10.20
2018,05,29,04,32,10.20
2018,05,29,04,33,10.20
2018,05,29,04,34,10.20
2018,05,29,04,35,10.20
2018,05,29,04,36,10.20
2018,05,29,04,37,10.10
2018,05,29,04,38,10.10
2018,05,29,04,39,10.10
2018,05,29,04,40,10.20
2018,05,29,04,41,10.20
2018,05,29,04,42,10.20
2018,05,29,04,43,10.20
2018,05,29,04,44,10.20
2018,05,29,04,45,10.20
2018,05,29,04,46,10.20
2018,05,29,04,47,10.20
2018,05,29,04,48,10.20
2018,05,29,04,49,10.20
2018,05,29,04,50,10.20
2018,05,29,04,51,10.20
2018,05,29,04,52,10.10
2018,05,29,04,53,10.20
2018,05,29,04,54,10.20
2018,05,29,04,55,10.10
2018,05,29,04,56,10.10
2018,05,29,04,57,10.10
2018,05,29,04,58,10.00
2018,05,29,04,59,10.00
2018,05,29,05,00,9.90
2018,05,29,05,01,9.90
2018,05,29,05,02,9.90
2018,05,29,05,03,9.90
2018,05,29,05,04,9.80
2018,05,29,05,05,9.80
2018,05,29,05,06,9.80
2018,05,29,05,07,9.70
2018,05,29,05,08,9.70
2018,05,29,05,09,9.70
2018,05,29,05,10,9.60
2018,05,29,05,11,9.60
2018,05,29,05,12,9.60
2018,05,29,05,13,9.50
2018,05,29,05,14,9.50
2018,05,29,05,15,9.40
2018,05,29,05,16,9.40
2018,05,29,05,17,9.30
2018,05,29,05,18,9.30
2018,05,29,05,19,9.30
2018,05,29,05,20,9.20
2018,05,29,05,21,9.20
2018,05,29,05,22,9.10
2018,05,29,05,23,9.10
2018,05,29,05,24,9.10
2018,05,29,05,25,9.00
2018,05,29,05,26,9.00
2018,05,29,05,27,8.90
2018,05,29,05,28,8.90
2018,05,29,05,29,8.80
2018,05,29,05,30,8.80
2018,05,29,05,31,8.80
2018,05,29,05,32,8.80
2018,05,29,05,33,8.70
2018,05,29,05,34,8.70
2018,05,29,05,35,8.70
2018,05,29,05,36,8.70
2018,05,29,05,37,8.60
2018,05,29,05,38,8.60
2018,05,29,05,39,8.60
2018,05,29,05,40,8.60
2018,05,29,05,41,8.50
2018,05,29,05,42,8.50
2018,05,29,05,43,8.50
2018,05,29,05,44,8.50
2018,05,29,05,45,8.40
2018,05,29,05,46,8.40
2018,05,29,05,47,8.40
2018,05,29,05,48,8.40
2018,05,29,05,49,8.30
2018,05,29,05,50,8.30
2018,05,29,05,51,8.30
2018,05,29,05,52,8.30
2018,05,29,05,53,8.20
2018,05,29,05,54,8.20
2018,05,29,05,55,8.20
2018,05,29,05,56,8.20
2018,05,29,05,57,8.20
2018,05,29,05,58,8.20
2018,05,29,05,59,8.20
2018,05,29,06,00,8.20
2018,05,29,06,01,8.20
2018,05,29,06,02,8.10
2018,05,29,06,03,8.10
2018,05,29,06,04,8.10
2018,05,29,06,05,8.10
2018,05,29,06,06,8.10
2018,05,29,06,07,8.10
2018,05,29,06,08,8.10
2018,05,29,06,09,8.10
2018,05,29,06,10,8.10
2018,05,29,06,11,8.10
2018,05,29,06,12,8.20
2018,05,29,06,13,8.20
2018,05,29,06,14,8.20
2018,05,29,06,15,8.20
2018,05,29,06,16,8.20
2018,05,29,06,17,8.20
2018,05,29,06,18,8.20
2018,05,29,06,19,8.20
2018,05,29,06,20,8.20
2018,05,29,06,21,8.20
2018,05,29,06,22,8.20
2018,05,29,06,23,8.20
2018,05,29,06,24,8.20
2018,05,29,06,25,8.20
2018,05,29,06,26,8.20
2018,05,29,06,27,8.20
2018,05,29,06,28,8.20
2018,05,29,06,29,8.20
2018,05,29,06,30,8.20
2018,05,29,06,31,8.20
2018,05,29,06,32,8.20
2018,05,29,06,33,8.10
2018,05,29,06,34,8.20
2018,05,29,06,35,8.10
2018,05,29,06,36,8.10
2018,05,29,06,37,8.10
2018,05,29,06,38,8.10
2018,05,29,06,39,8.20
2018,05,29,06,40,8.20
2018,05,29,06,41,8.10
2018,05,29,06,42,8.10
2018,05,29,06,43,8.20
2018,05,29,06,44,8.20
2018,05,29,06,45,8.20
2018,05,29,06,46,8.30
2018,05,29,06,47,8.30
2018,05,29,06,48,8.40
2018,05,29,06,49,8.40
2018,05,29,06,50,8.40
2018,05,29,06,51,8.50
2018,05,29,06,52,8.50
2018,05,29,06,53,8.50
2018,05,29,06,54,8.50
2018,05,29,06,55,8.50
2018,05,29,06,56,8.50
2018,05,29,06,57,8.60
2018,05,29,06,58,8.60
2018,05,29,06,59,8.60
2018,05,29,07,00,8.60
2018,05,29,07,01,8.60
2018,05,29,07,02,8.70
2018,05,29,07,03,8.70
2018,05,29,07,04,8.70
2018,05,29,07,05,8.80
2018,05,29,07,06,8.90
2018,05,29,07,07,8.90
2018,05,29,07,08,9.00
2018,05,29,07,09,9.00
2018,05,29,07,10,9.10
2018,05,29,07,11,9.10
2018,05,29,07,12,9.20
2018,05,29,07,13,9.20
2018,05,29,07,14,9.30
2018,05,29,07,15,9.30
2018,05,29,07,16,9.30
2018,05,29,07,17,9.30
2018,05,29,07,18,9.30
2018,05,29,07,19,9.40
2018,05,29,07,20,9.40
2018,05,29,07,21,9.50
2018,05,29,07,22,9.50
2018,05,29,07,23,9.50
2018,05,29,07,24,9.60
2018,05,29,07,25,9.60
2018,05,29,07,26,9.60
2018,05,29,07,27,9.70
2018,05,29,07,28,9.70
2018,05,29,07,29,9.70
2018,05,29,07,30,9.80
2018,05,29,07,31,9.80
2018,05,29,07,32,9.90
2018,05,29,07,33,10.00
2018,05,29,07,34,10.10
2018,05,29,07,35,10.20
2018,05,29,07,36,10.20
2018,05,29,07,37,10.30
2018,05,29,07,38,10.30
2018,05,29,07,39,10.40
2018,05,29,07,40,10.40
2018,05,29,07,41,10.50
2018,05,29,07,42,10.50
2018,05,29,07,43,10.60
2018,05,29,07,44,10.60
2018,05,29,07,45,10.70
2018,05,29,07,46,10.80
2018,05,29,07,47,10.80
2018,05,29,07,48,10.90
2018,05,29,07,49,10.90
2018,05,29,07,50,11.00
2018,05,29,07,51,11.00
2018,05,29,07,52,11.00
2018,05,29,07,53,11.10
2018,05,29,07,54,11.10
2018,05,29,07,55,11.20
2018,05,29,07,56,11.20
2018,05,29,07,57,11.20
2018,05,29,07,58,11.30
2018,05,29,07,59,11.30
2018,05,29,08,00,11.40
2018,05,29,08,01,11.40
2018,05,29,08,02,11.40
2018,05,29,08,03,11.40
2018,05,29,08,04,11.40
2018,05,29,08,05,11.50
2018,05,29,08,06,11.50
2018,05,29,08,07,11.60
2018,05,29,08,08,11.60
2018,05,29,08,09,11.60
2018,05,29,08,10,11.60
2018,05,29,08,11,11.60
2018,05,29,08,12,11.60
2018,05,29,08,13,11.60
2018,05,29,08,14,11.70
2018,05,29,08,15,11.70
2018,05,29,08,16,11.70
2018,05,29,08,17,11.70
2018,05,29,08,18,11.70
2018,05,29,08,19,11.70
2018,05,29,08,20,11.70
2018,05,29,08,21,11.70
2018,05,29,08,22,11.70
2018,05,29,08,23,11.70
2018,05,29,08,24,11.70
2018,05,29,08,25,11.70
2018,05,29,08,26,11.80
2018,05,29,08,27,11.80
2018,05,29,08,28,11.80
2018,05,29,08,29,11.80
2018,05,29,08,30,11.80
2018,05,29,08,31,11.80
2018,05,29,08,32,11.80
2018,05,29,08,33,11.90
2018,05,29,08,34,11.90
2018,05,29,08,35,11.90
2018,05,29,08,36,11.90
2018,05,29,08,37,11.90
2018,05,29,08,38,12.00
2018,05,29,08,39,12.00
2018,05,29,08,40,12.00
2018,05,29,08,41,12.00
2018,05,29,08,42,12.10
2018,05,29,08,43,12.10
2018,05,29,08,44,12.10
2018,05,29,08,45,12.00
2018,05,29,08,46,12.00
2018,05,29,08,47,12.00
2018,05,29,08,48,12.00
2018,05,29,08,49,12.00
2018,05,29,08,50,12.00
2018,05,29,08,51,12.00
2018,05,29,08,52,12.00
2018,05,29,08,53,12.00
2018,05,29,08,54,12.00
2018,05,29,08,55,12.00
2018,05,29,08,56,12.00
2018,05,29,08,57,12.10
2018,05,29,08,58,12.10
2018,05,29,08,59,12.10
2018,05,29,09,00,12.20
2018,05,29,09,01,12.20
2018,05,29,09,02,12.20
2018,05,29,09,03,12.20
2018,05,29,09,04,12.20
2018,05,29,09,05,12.30
2018,05,29,09,06,12.30
2018,05,29,09,07,12.30
2018,05,29,09,08,12.30
2018,05,29,09,09,12.30
2018,05,29,09,10,12.30
2018,05,29,09,11,12.40
2018,05,29,09,12,12.40
2018,05,29,09,13,12.40
2018,05,29,09,14,12.50
2018,05,29,09,15,12.50
2018,05,29,09,16,12.50
2018,05,29,09,17,12.60
2018,05,29,09,18,12.60
2018,05,29,09,19,12.60
2018,05,29,09,20,12.60
2018,05,29,09,21,12.60
2018,05,29,09,22,12.70
2018,05,29,09,23,12.70
2018,05,29,09,24,12.70
2018,05,29,09,25,12.70
2018,05,29,09,26,12.70
2018,05,29,09,27,12.70
2018,05,29,09,28,12.70
2018,05,29,09,29,12.70
2018,05,29,09,30,12.70
2018,05,29,09,31,12.70
2018,05,29,09,32,12.60
2018,05,29,09,33,12.60
2018,05,29,09,34,12.60
2018,05,29,09,35,12.60
2018,05,29,09,36,12.70
2018,05,29,09,37,12.80
2018,05,29,09,38,12.80
2018,05,29,09,39,12.90
2018,05,29,09,40,13.00
2018,05,29,09,41,13.10
2018,05,29,09,42,13.20
2018,05,29,09,43,13.30
2018,05,29,09,44,13.40
2018,05,29,09,45,13.50
2018,05,29,09,46,13.60
2018,05,29,09,47,13.60
2018,05,29,09,48,13.70
2018,05,29,09,49,13.80
2018,05,29,09,50,13.90
2018,05,29,09,51,14.00
2018,05,29,09,52,14.00
2018,05,29,09,53,14.00
2018,05,29,09,54,14.10
2018,05,29,09,55,14.20
2018,05,29,09,56,14.30
2018,05,29,09,57,14.40
2018,05,29,09,58,14.50
2018,05,29,09,59,14.50
2018,05,29,10,00,14.60
2018,05,29,10,01,14.60
2018,05,29,10,02,14.60
2018,05,29,10,03,14.60
2018,05,29,10,04,14.60
2018,05,29,10,05,14.60
2018,05,29,10,06,14.60
2018,05,29,10,07,14.60
2018,05,29,10,08,14.60
2018,05,29,10,09,14.60
2018,05,29,10,10,14.70
2018,05,29,10,11,14.80
2018,05,29,10,12,14.80
2018,05,29,10,13,14.80
2018,05,29,10,14,14.90
2018,05,29,10,15,14.90
2018,05,29,10,16,15.00
2018,05,29,10,17,15.10
2018,05,29,10,18,15.10
2018,05,29,10,19,15.20
2018,05,29,10,20,15.20
2018,05,29,10,21,15.30
2018,05,29,10,22,15.30
2018,05,29,10,23,15.30
2018,05,29,10,24,15.40
2018,05,29,10,25,15.40
2018,05,29,10,26,15.40
2018,05,29,10,27,15.40
2018,05,29,10,28,15.50
2018,05,29,10,29,15.50
2018,05,29,10,30,15.50
2018,05,29,10,31,15.60
2018,05,29,10,32,15.60
2018,05,29,10,33,15.70
2018,05,29,10,34,15.70
2018,05,29,10,35,15.80
2018,05,29,10,36,15.80
2018,05,29,10,37,15.80
2018,05,29,10,38,15.90
2018,05,29,10,39,16.00
2018,05,29,10,40,16.00
2018,05,29,10,41,16.00
2018,05,29,10,42,16.10
2018,05,29,10,43,16.00
2018,05,29,10,44,16.00
2018,05,29,10,45,16.00
2018,05,29,10,46,15.90
2018,05,29,10,47,16.00
2018,05,29,10,48,16.00
2018,05,29,10,49,16.10
2018,05,29,10,50,16.20
2018,05,29,10,51,16.30
2018,05,29,10,52,16.40
2018,05,29,10,53,16.50
2018,05,29,10,54,16.60
2018,05,29,10,55,16.70
2018,05,29,10,56,16.80
2018,05,29,10,57,16.80
2018,05,29,10,58,16.80
2018,05,29,10,59,16.80
2018,05,29,11,00,16.80
2018,05,29,11,01,16.70
2018,05,29,11,02,16.70
2018,05,29,11,03,16.70
2018,05,29,11,04,16.70
2018,05,29,11,05,16.70
2018,05,29,11,06,16.60
2018,05,29,11,07,16.50
2018,05,29,11,08,16.40
2018,05,29,11,09,16.20
2018,05,29,11,10,16.20
2018,05,29,11,11,16.10
2018,05,29,11,12,16.10
2018,05,29,11,13,16.20
2018,05,29,11,14,16.10
2018,05,29,11,15,16.10
2018,05,29,11,16,16.00
2018,05,29,11,17,15.90
2018,05,29,11,18,15.80
2018,05,29,11,19,15.80
2018,05,29,11,20,15.70
2018,05,29,11,21,15.60
2018,05,29,11,22,15.50
2018,05,29,11,23,15.40
2018,05,29,11,24,15.30
2018,05,29,11,25,15.30
2018,05,29,11,26,15.20
2018,05,29,11,27,15.20
2018,05,29,11,28,15.10
2018,05,29,11,29,15.10
2018,05,29,11,30,15.10
2018,05,29,11,31,15.20
2018,05,29,11,32,15.20
2018,05,29,11,33,15.20
2018,05,29,11,34,15.30
2018,05,29,11,35,15.40
2018,05,29,11,36,15.40
2018,05,29,11,37,15.50
2018,05,29,11,38,15.60
2018,05,29,11,39,15.70
2018,05,29,11,40,15.80
2018,05,29,11,41,15.90
2018,05,29,11,42,15.90
2018,05,29,11,43,16.00
2018,05,29,11,44,16.10
2018,05,29,11,45,16.20
2018,05,29,11,46,16.40
2018,05,29,11,47,16.60
2018,05,29,11,48,16.80
2018,05,29,11,49,16.90
2018,05,29,11,50,17.10
2018,05,29,11,51,17.20
2018,05,29,11,52,17.40
2018,05,29,11,53,17.50
2018,05,29,11,54,17.60
2018,05,29,11,55,17.70
2018,05,29,11,56,17.80
2018,05,29,11,57,17.90
2018,05,29,11,58,17.90
2018,05,29,11,59,17.90
2018,05,29,12,00,17.80
2018,05,29,12,01,17.80
2018,05,29,12,02,17.80
2018,05,29,12,03,17.80
2018,05,29,12,04,17.90
2018,05,29,12,05,17.90
2018,05,29,12,06,18.00
2018,05,29,12,07,18.10
2018,05,29,12,08,18.20
2018,05,29,12,09,18.20
2018,05,29,12,10,18.20
2018,05,29,12,11,18.10
2018,05,29,12,12,18.10
2018,05,29,12,13,18.10
2018,05,29,12,14,18.00
2018,05,29,12,15,18.00
2018,05,29,12,16,17.90
2018,05,29,12,17,17.80
2018,05,29,12,18,17.80
2018,05,29,12,19,17.60
2018,05,29,12,20,17.40
2018,05,29,12,21,17.30
2018,05,29,12,22,17.20
2018,05,29,12,23,17.20
2018,05,29,12,24,17.20
2018,05,29,12,25,17.30
2018,05,29,12,26,17.40
2018,05,29,12,27,17.40
2018,05,29,12,28,17.40
2018,05,29,12,29,17.40
2018,05,29,12,30,17.50
2018,05,29,12,31,17.50
2018,05,29,12,32,17.50
2018,05,29,12,33,17.50
2018,05,29,12,34,17.50
2018,05,29,12,35,17.60
2018,05,29,12,36,17.70
2018,05,29,12,37,17.70
2018,05,29,12,38,17.80
2018,05,29,12,39,17.70
2018,05,29,12,40,17.70
2018,05,29,12,41,17.70
2018,05,29,12,42,17.70
2018,05,29,12,43,17.70
2018,05,29,12,44,17.80
2018,05,29,12,45,17.80
2018,05,29,12,46,17.80
2018,05,29,12,47,17.70
2018,05,29,12,48,17.70
2018,05,29,12,49,17.60
2018,05,29,12,50,17.50
2018,05,29,12,51,17.40
2018,05,29,12,52,17.30
2018,05,29,12,53,17.40
2018,05,29,12,54,17.40
2018,05,29,12,55,17.40
2018,05,29,12,56,17.50
2018,05,29,12,57,17.50
2018,05,29,12,58,17.40
2018,05,29,12,59,17.20
2018,05,29,13,00,17.10
2018,05,29,13,01,16.90
2018,05,29,13,02,16.70
2018,05,29,13,03,16.50
2018,05,29,13,04,16.50
2018,05,29,13,05,16.50
2018,05,29,13,06,16.40
2018,05,29,13,07,16.30
2018,05,29,13,08,16.20
2018,05,29,13,09,16.10
2018,05,29,13,10,16.10
2018,05,29,13,11,16.00
2018,05,29,13,12,16.00
2018,05,29,13,13,16.00
2018,05,29,13,14,16.00
2018,05,29,13,15,15.90
2018,05,29,13,16,15.90
2018,05,29,13,17,15.90
2018,05,29,13,18,16.00
2018,05,29,13,19,16.00
2018,05,29,13,20,16.00
2018,05,29,13,21,16.00
2018,05,29,13,22,16.10
2018,05,29,13,23,16.20
2018,05,29,13,24,16.30
2018,05,29,13,25,16.40
2018,05,29,13,26,16.40
2018,05,29,13,27,16.50
2018,05,29,13,28,16.40
2018,05,29,13,29,16.30
2018,05,29,13,30,16.20
2018,05,29,13,31,16.20
2018,05,29,13,32,16.20
2018,05,29,13,33,16.10
2018,05,29,13,34,16.10
2018,05,29,13,35,16.10
2018,05,29,13,36,16.10
2018,05,29,13,37,16.20
2018,05,29,13,38,16.20
2018,05,29,13,39,16.30
2018,05,29,13,40,16.30
2018,05,29,13,41,16.40
2018,05,29,13,42,16.50
2018,05,29,13,43,16.60
2018,05,29,13,44,16.60
2018,05,29,13,45,16.60
2018,05,29,13,46,16.60
2018,05,29,13,47,16.70
2018,05,29,13,48,16.90
2018,05,29,13,49,17.00
2018,05,29,13,50,17.10
2018,05,29,13,51,17.10
2018,05,29,13,52,17.20
2018,05,29,13,53,17.20
2018,05,29,13,54,17.30
2018,05,29,13,55,17.40
2018,05,29,13,56,17.50
2018,05,29,13,57,17.60
2018,05,29,13,58,17.70
2018,05,29,13,59,17.70
2018,05,29,14,00,17.60
2018,05,29,14,01,17.60
2018,05,29,14,02,17.50
2018,05,29,14,03,17.40
2018,05,29,14,04,17.30
2018,05,29,14,05,17.20
2018,05,29,14,06,17.20
2018,05,29,14,07,17.20
2018,05,29,14,08,17.30
2018,05,29,14,09,17.40
2018,05,29,14,10,17.50
2018,05,29,14,11,17.60
2018,05,29,14,12,17.70
2018,05,29,14,13,17.70
2018,05,29,14,14,17.70
2018,05,29,14,15,17.70
2018,05,29,14,16,17.70
2018,05,29,14,17,17.70
2018,05,29,14,18,17.80
2018,05,29,14,19,17.70
2018,05,29,14,20,17.70
2018,05,29,14,21,17.60
2018,05,29,14,22,17.60
2018,05,29,14,23,17.50
2018,05,29,14,24,17.50
2018,05,29,14,25,17.30
2018,05,29,14,26,17.10
2018,05,29,14,27,17.00
2018,05,29,14,28,16.90
2018,05,29,14,29,16.70
2018,05,29,14,30,16.60
2018,05,29,14,31,16.50
2018,05,29,14,32,16.50
2018,05,29,14,33,16.50
2018,05,29,14,34,16.60
2018,05,29,14,35,16.60
2018,05,29,14,36,16.70
2018,05,29,14,37,16.70
2018,05,29,14,38,16.70
2018,05,29,14,39,16.80
2018,05,29,14,40,16.90
2018,05,29,14,41,16.90
2018,05,29,14,42,16.90
2018,05,29,14,43,17.00
2018,05,29,14,44,17.00
2018,05,29,14,45,17.00
2018,05,29,14,46,16.90
2018,05,29,14,47,16.90
2018,05,29,14,48,16.90
2018,05,29,14,49,16.90
2018,05,29,14,50,16.90
2018,05,29,14,51,16.90
2018,05,29,14,52,16.90
2018,05,29,14,53,16.80
2018,05,29,14,54,16.80
2018,05,29,14,55,16.80
2018,05,29,14,56,16.80
2018,05,29,14,57,16.90
2018,05,29,14,58,16.90
2018,05,29,14,59,17.00
2018,05,29,15,00,17.00
2018,05,29,15,01,17.00
2018,05,29,15,02,16.90
2018,05,29,15,03,16.90
2018,05,29,15,04,16.90
2018,05,29,15,05,16.90
2018,05,29,15,06,16.90
2018,05,29,15,07,17.00
2018,05,29,15,08,17.10
2018,05,29,15,09,17.10
2018,05,29,15,10,17.20
2018,05,29,15,11,17.20
2018,05,29,15,12,17.20
2018,05,29,15,13,17.20
2018,05,29,15,14,17.30
2018,05,29,15,15,17.30
2018,05,29,15,16,17.30
2018,05,29,15,17,17.40
2018,05,29,15,18,17.40
2018,05,29,15,19,17.50
2018,05,29,15,20,17.50
2018,05,29,15,21,17.50
2018,05,29,15,22,17.30
2018,05,29,15,23,17.20
2018,05,29,15,24,17.20
2018,05,29,15,25,17.20
2018,05,29,15,26,17.10
2018,05,29,15,27,17.00
2018,05,29,15,28,17.00
2018,05,29,15,29,17.10
2018,05,29,15,30,17.10
2018,05,29,15,31,17.00
2018,05,29,15,32,17.00
2018,05,29,15,33,16.90
2018,05,29,15,34,16.80
2018,05,29,15,35,16.80
2018,05,29,15,36,16.70
2018,05,29,15,37,16.50
2018,05,29,15,38,16.40
2018,05,29,15,39,16.40
2018,05,29,15,40,16.50
2018,05,29,15,41,16.60
2018,05,29,15,42,16.80
2018,05,29,15,43,16.90
2018,05,29,15,44,16.90
2018,05,29,15,45,16.80
2018,05,29,15,46,16.70
2018,05,29,15,47,16.60
2018,05,29,15,48,16.50
2018,05,29,15,49,16.60
2018,05,29,15,50,16.60
2018,05,29,15,51,16.60
2018,05,29,15,52,16.50
2018,05,29,15,53,16.50
2018,05,29,15,54,16.60
2018,05,29,15,55,16.60
2018,05,29,15,56,16.60
2018,05,29,15,57,16.70
2018,05,29,15,58,16.80
2018,05,29,15,59,16.90
2018,05,29,16,00,17.00
2018,05,29,16,01,17.00
2018,05,29,16,02,17.00
2018,05,29,16,03,17.10
2018,05,29,16,04,17.10
2018,05,29,16,05,17.00
2018,05,29,16,06,16.80
2018,05,29,16,07,16.70
2018,05,29,16,08,16.50
2018,05,29,16,09,16.30
2018,05,29,16,10,16.10
2018,05,29,16,11,15.80
2018,05,29,16,12,15.60
2018,05,29,16,13,15.40
2018,05,29,16,14,15.30
2018,05,29,16,15,15.20
2018,05,29,16,16,15.10
2018,05,29,16,17,14.90
2018,05,29,16,18,14.90
2018,05,29,16,19,14.80
2018,05,29,16,20,14.80
2018,05,29,16,21,14.80
2018,05,29,16,22,14.80
2018,05,29,16,23,14.80
2018,05,29,16,24,14.80
2018,05,29,16,25,14.80
2018,05,29,16,26,14.70
2018,05,29,16,27,14.70
2018,05,29,16,28,14.70
2018,05,29,16,29,14.70
2018,05,29,16,30,14.70
2018,05,29,16,31,14.70
2018,05,29,16,32,14.70
2018,05,29,16,33,14.70
2018,05,29,16,34,14.60
2018,05,29,16,35,14.60
2018,05,29,16,36,14.60
2018,05,29,16,37,14.50
2018,05,29,16,38,14.50
2018,05,29,16,39,14.50
2018,05,29,16,40,14.40
2018,05,29,16,41,14.40
2018,05,29,16,42,14.40
2018,05,29,16,43,14.50
2018,05,29,16,44,14.40
2018,05,29,16,45,14.50
2018,05,29,16,46,14.50
2018,05,29,16,47,14.50
2018,05,29,16,48,14.60
2018,05,29,16,49,14.60
2018,05,29,16,50,14.60
2018,05,29,16,51,14.70
2018,05,29,16,52,14.70
2018,05,29,16,53,14.70
2018,05,29,16,54,14.80
2018,05,29,16,55,14.80
2018,05,29,16,56,14.80
2018,05,29,16,57,14.80
2018,05,29,16,58,14.80
2018,05,29,16,59,14.80
2018,05,29,17,00,14.80
2018,05,29,17,01,14.80
2018,05,29,17,02,14.80
2018,05,29,17,03,14.80
2018,05,29,17,04,14.80
2018,05,29,17,05,14.80
2018,05,29,17,06,14.80
2018,05,29,17,07,14.80
2018,05,29,17,08,14.80
2018,05,29,17,09,14.80
2018,05,29,17,10,14.70
2018,05,29,17,11,14.70
2018,05,29,17,12,14.70
2018,05,29,17,13,14.70
2018,05,29,17,14,14.70
2018,05,29,17,15,14.80
2018,05,29,17,16,14.80
2018,05,29,17,17,14.80
2018,05,29,17,18,14.90
2018,05,29,17,19,14.90
2018,05,29,17,20,14.90
2018,05,29,17,21,15.00
2018,05,29,17,22,15.00
2018,05,29,17,23,15.10
2018,05,29,17,24,15.10
2018,05,29,17,25,15.10
2018,05,29,17,26,15.20